MPEC 2007-G35 : 2007 GS3

The following Minor Planet Electronic Circular may be linked-to from your own Web pages, but must not otherwise be redistributed electronically.


Read MPEC 2007-G34 Read MPEC 2007-G36


M.P.E.C. 2007-G35                                Issued 2007 Apr. 12, 16:10 UT

     The Minor Planet Electronic Circulars contain information on unusual
         minor planets and routine data on comets.  They are published
   on behalf of Commission 20 of the International Astronomical Union by the
          Minor Planet Center, Smithsonian Astrophysical Observatory,
                          Cambridge, MA 02138, U.S.A.

             Prepared using the Tamkin Foundation Computer Network

                              MPC@CFA.HARVARD.EDU
          URL http://cfa-www.harvard.edu/iau/mpc.html  ISSN 1523-6714

                                   2007 GS3

Observations:
     K07G03S* C2007 04 11.48243 07 23 49.27 -50 55 33.2          16.4 V EG035E12
     K07G03S  C2007 04 11.49980 07 23 43.51 -50 54 05.0          16.3 V EG035E12
     K07G03S  C2007 04 11.50847 07 23 40.70 -50 53 20.5          16.4 V EG035E12
     K07G03S  C2007 04 11.55716 07 23 25.38 -50 49 09.3          16.3 V EG035E12
     K07G03S  C2007 04 12.47994 07 18 51.94 -49 32 29.5          16.3 V EG035E12
     K07G03S  C2007 04 12.49448 07 18 46.98 -49 31 06.8          16.4 V EG035E12
     K07G03S  C2007 04 12.50175 07 18 44.49 -49 30 24.9          16.4 V EG035E12

Observer details:
E12 Siding Spring Survey.  Observer G. J. Garradd.  Measurers E. C. Beshore,
    E. J. Christensen, G. J. Garradd, A. R. Gibbs, A. D. Grauer, R. E. Hill,
    R. A. Kowalski, S. M. Larson, R. H. McNaught.  0.5-m Uppsala Schmidt + CCD.

Orbital elements:
2007 GS3                                            PHA, Earth MOID = 0.0224 AU
Epoch 2007 Apr. 10.0 TT = JDT 2454200.5                 MPC
M 293.12668              (2000.0)            P               Q
n   0.90826127     Peri.   63.29041     +0.13914707     +0.97858771
a   1.0559958      Node   215.74485     -0.97554255     +0.10914194
e   0.1290209      Incl.   15.04826     -0.17016117     +0.17451109
P   1.09           H   19.1           G   0.15           U   8
Residuals in seconds of arc
070411 E12  0.3+  0.0     070411 E12  0.1-  0.1-    070412 E12  0.1-  0.1+
070411 E12  0.1-  0.1-    070412 E12  0.0   0.1+
070411 E12  0.1-  0.1+    070412 E12  0.1+  0.2-

Ephemeris:
2007 GS3                 a,e,i = 1.06, 0.13, 15                  q = 0.9198
Date    TT    R. A. (2000) Decl.     Delta      r     Elong.  Phase     V
2007 04 10    07 30.94   -52 42.0    0.0856   1.018    98.9    76.4    16.5
2007 04 12    07 21.41   -50 13.6    0.0769   1.014    96.7    79.0    16.3
2007 04 14    07 11.02   -47 04.3    0.0684   1.010    93.9    82.2    16.2
2007 04 16    06 59.56   -42 57.8    0.0602   1.006    90.4    86.2    16.0
2007 04 18    06 46.79   -37 30.1    0.0524   1.001    85.7    91.3    15.9
2007 04 20    06 32.42   -30 07.4    0.0453   0.997    79.5    97.9    15.9
2007 04 22    06 16.11   -20 08.2    0.0393   0.993    71.3   106.5    16.0
2007 04 24    05 57.52   -07 04.0    0.0351   0.989    61.1   117.1    16.4
2007 04 26    05 36.35   +08 28.4    0.0333   0.985    50.3   128.2    17.2
2007 04 28    05 12.46   +24 13.1    0.0345   0.981    41.9   136.7    18.2
2007 04 30    04 45.97   +37 37.4    0.0383   0.977    38.4   140.2    18.8

Kyle E. Smalley              (C) Copyright 2007 MPC           M.P.E.C. 2007-G35

Read MPEC 2007-G34 Read MPEC 2007-G36


Our Web policy. Index to the CBAT/MPC/ICQ pages.

MPC

Valid HTML 4.01!